Humidity-temperature Sensor

Selected Measurement Type: Air Temperature

 
Air Temperature [°C]     6 entries per hour
Showing data from 4/11/2021 (00:00:00 Z) to 4/10/2021 (00:01:00 Z)
Previous Next [ Day | 3-Days | 7-Days ]
First Last
Prev [ Day | 3-Days | 7-Days ] Next
First Last

Start Time:     :
End Time:     :     
Time (in GMT) :00 :50 :40 :30 :20 :10
Previous Next [ Day | 3-Days | 7-Days ]
First Last
Prev [ Day | 3-Days | 7-Days ] Next
First Last


123 => good data
MM => data is determined as missing
-- => data not received/configured
Back to Top Back to Top
4/11/2021 00:00 to 23:10 28.01 28.03 27.97 27.72 27.99 28.05
4/10/2021 23:00 to 22:10 28.13 28.04 27.93 27.73 27.93 27.94
4/10/2021 22:00 to 21:10 27.63 27.57 27.66 27.65 27.66 27.67
4/10/2021 21:00 to 20:10 27.51 27.57 27.71 27.50 27.26 27.43
4/10/2021 20:00 to 19:10 27.37 27.06 27.02 26.81 26.55 26.45
4/10/2021 19:00 to 18:10 26.11 25.96 26.17 26.34 26.72 26.76
4/10/2021 18:00 to 17:10 26.61 26.38 26.32 26.18 25.84 25.84
4/10/2021 17:00 to 16:10 26.05 25.98 25.83 26.08 26.30 26.10
4/10/2021 16:00 to 15:10 26.04 26.44 27.23 27.08 27.15 27.15
4/10/2021 15:00 to 14:10 26.97 27.02 27.10 26.90 26.95 26.91
4/10/2021 14:00 to 13:10 27.04 27.18 26.83 26.83 26.79 26.74
4/10/2021 13:00 to 12:10 26.67 26.63 26.77 26.66 26.57 26.66
4/10/2021 12:00 to 11:10 26.65 26.59 26.55 26.58 26.40 26.45
4/10/2021 11:00 to 10:10 26.52 26.39 26.39 26.51 26.41 26.43
4/10/2021 10:00 to 9:10 26.37 26.37 26.60 26.43 26.39 26.34
4/10/2021 09:00 to 8:10 26.56 26.67 26.80 26.76 26.84 26.92
4/10/2021 08:00 to 7:10 26.89 26.84 26.84 26.75 26.83 26.80
4/10/2021 07:00 to 6:10 26.77 27.00 26.79 26.90 26.92 26.96
4/10/2021 06:00 to 5:10 26.86 26.85 26.86 26.88 26.89 27.00
4/10/2021 05:00 to 4:10 26.90 26.98 27.01 26.91 26.95 27.05
4/10/2021 04:00 to 3:10 26.98 27.01 27.23 26.92 27.01 27.02
4/10/2021 03:00 to 2:10 26.99 26.92 26.99 27.06 27.13 26.99
4/10/2021 02:00 to 1:10 27.08 27.01 26.95 27.18 26.85 27.15
4/10/2021 01:00 to 0:10 27.04 26.81 26.78 26.69 26.72 26.75